EUTELSAT 36B            
1 36101U 09065A   19264.77358302  .00000150  00000-0  00000+0 0  9993
2 36101   0.0650   0.4556 0004601 176.6383 137.6676  1.00269919 36135
BREEZE-M R/B            
1 36102U 09065B   19265.15703946 -.00000049  00000-0  00000+0 0  9993
2 36102  21.4476 329.1742 5882997 138.2589 297.9404  2.20876941 79066
BREEZE-M DEB [TANK]     
1 36103U 09065C   19264.81696421  .00001716  00000-0  32724-3 0  9998
2 36103  49.2758 140.1070 5305982 122.8206 299.5685  5.11253494181228